Tracking 28126 objects as of 1-Oct-2023
HD Live streaming from Space Station
objects crossing your sky now

STARLINK-5272

Track STARLINK-5272 now!
10-day predictions
STARLINK-5272 is classified as:


NORAD ID: 55298
Int'l Code: 2023-010AF
Perigee: 577.5 km
Apogee: 580.9 km
Inclination: 70.0 °
Period: 96.1 minutes
Semi major axis: 6950 km
RCS: Unknown
Launch date: January 19, 2023
Source: United States (US)
Launch site: AIR FORCE WESTERN TEST RANGE (AFWTR)
Your satellite tracking list
Your tracking list is empty




NASA's NSSDC Master Catalog

Two Line Element Set (TLE):
1 55298U 23010AF  23272.98329493  .00000425  00000-0  43391-4 0  9993
2 55298  69.9983 112.6259 0002484 269.3217  90.7657 14.98333708 40586
Source of the keplerian elements: AFSPC